Time,TemperatureF,DewpointF,PressureIn,WindDirection,WindDirectionDegrees,WindSpeedMPH,WindSpeedGustMPH,Humidity,HourlyPrecipIn,Conditions,Clouds,dailyrainin,SolarRadiationWatts/m^2,SoftwareType,DateUTC
2013-10-11 00:00:00,76.0,69.0,29.98,NE,42,0.0,0.0,79,0.00,,FEW021,0.00,0.00,VWS V14.01,2013-10-11 04:00:00,
2013-10-11 00:01:00,75.9,68.9,29.98,NE,42,0.0,0.0,79,0.00,,FEW021,0.00,0.00,VWS V14.01,2013-10-11 04:01:00,
2013-10-11 00:02:00,75.8,68.5,29.98,NE,42,0.0,0.0,78,0.00,,FEW021,0.00,0.00,VWS V14.01,2013-10-11 04:02:00,
2013-10-11 00:07:00,75.5,68.5,29.98,NE,42,0.0,0.0,79,0.00,,FEW021,0.00,0.00,VWS V14.01,2013-10-11 04:07:00,
2013-10-11 00:12:00,75.2,68.6,29.97,NE,42,0.0,1.0,80,0.00,,FEW021,0.00,0.00,VWS V14.01,2013-10-11 04:12:00,
2013-10-11 00:17:00,75.0,68.8,29.98,NE,42,0.0,0.0,81,0.00,,FEW021,0.00,0.00,VWS V14.01,2013-10-11 04:17:00,
2013-10-11 00:22:00,74.9,68.7,29.97,NE,42,0.0,0.0,81,0.00,,FEW021,0.00,0.00,VWS V14.01,2013-10-11 04:22:00,
2013-10-11 00:27:00,74.8,68.6,29.98,NE,42,0.0,0.0,81,0.00,,FEW021,0.00,0.00,VWS V14.01,2013-10-11 04:27:00,
2013-10-11 00:32:00,74.8,68.6,29.97,NE,42,0.0,1.0,81,0.00,,FEW021,0.00,0.00,VWS V14.01,2013-10-11 04:32:00,
2013-10-11 00:37:00,74.9,68.7,29.97,NE,42,1.0,1.0,81,0.00,,FEW021,0.00,0.00,VWS V14.01,2013-10-11 04:37:00,
2013-10-11 00:42:00,74.9,68.7,29.97,NE,42,0.0,0.0,81,0.00,,FEW021,0.00,0.00,VWS V14.01,2013-10-11 04:42:00,
2013-10-11 00:47:00,74.8,68.6,29.97,NE,42,0.0,0.0,81,0.00,,FEW021,0.00,0.00,VWS V14.01,2013-10-11 04:47:00,
2013-10-11 00:52:00,74.5,68.7,29.97,NE,42,0.0,0.0,82,0.00,,FEW021,0.00,0.00,VWS V14.01,2013-10-11 04:52:00,
2013-10-11 00:57:00,74.2,68.4,29.97,NE,42,0.0,0.0,82,0.00,,FEW021,0.00,0.00,VWS V14.01,2013-10-11 04:57:00,
2013-10-11 01:02:00,74.1,68.6,29.97,NE,42,0.0,0.0,83,0.00,,FEW021,0.00,0.00,VWS V14.01,2013-10-11 05:02:00,
2013-10-11 01:07:00,73.9,68.4,29.97,NE,42,0.0,0.0,83,0.00,,FEW021,0.00,0.00,VWS V14.01,2013-10-11 05:07:00,
2013-10-11 01:12:00,73.7,68.2,29.97,NE,42,0.0,0.0,83,0.00,,FEW021,0.00,0.00,VWS V14.01,2013-10-11 05:12:00,
2013-10-11 01:17:00,73.4,67.9,29.97,NE,42,0.0,0.0,83,0.00,,FEW021,0.00,0.00,VWS V14.01,2013-10-11 05:17:00,
2013-10-11 01:22:00,73.3,68.2,29.97,NE,42,0.0,0.0,84,0.00,,FEW021,0.00,0.00,VWS V14.01,2013-10-11 05:22:00,
2013-10-11 01:27:00,73.1,68.0,29.97,NE,42,0.0,0.0,84,0.00,,FEW021,0.00,0.00,VWS V14.01,2013-10-11 05:27:00,
2013-10-11 01:32:00,72.9,67.8,29.97,NE,42,0.0,0.0,84,0.00,,FEW021,0.00,0.00,VWS V14.01,2013-10-11 05:32:00,
2013-10-11 01:57:00,72.2,67.8,29.96,North,0,0.0,0.0,86,0.00,,FEW021,0.00,0.00,VWS V14.01,2013-10-11 05:57:00,
2013-10-11 02:02:00,71.7,67.6,29.96,NE,42,0.0,1.0,87,0.00,,FEW021,0.00,0.00,VWS V14.01,2013-10-11 06:02:00,
2013-10-11 02:07:00,71.6,67.5,29.96,NE,42,0.0,0.0,87,0.00,,FEW021,0.00,0.00,VWS V14.01,2013-10-11 06:07:00,
2013-10-11 02:12:00,71.5,67.8,29.96,NE,42,0.0,0.0,88,0.00,,FEW021,0.00,0.00,VWS V14.01,2013-10-11 06:12:00,
2013-10-11 02:17:00,71.3,67.6,29.96,NE,42,0.0,0.0,88,0.00,,FEW021,0.00,0.00,VWS V14.01,2013-10-11 06:17:00,
2013-10-11 02:22:00,71.2,67.5,29.96,NE,42,0.0,0.0,88,0.00,,FEW021,0.00,0.00,VWS V14.01,2013-10-11 06:22:00,
2013-10-11 02:27:00,71.1,67.4,29.96,NE,42,0.0,0.0,88,0.00,,FEW021,0.00,0.00,VWS V14.01,2013-10-11 06:27:00,
2013-10-11 02:32:00,71.0,67.6,29.95,NE,42,0.0,0.0,89,0.00,,FEW021,0.00,0.00,VWS V14.01,2013-10-11 06:32:00,
2013-10-11 02:37:00,70.8,67.4,29.95,NE,42,0.0,0.0,89,0.00,,FEW021,0.00,0.00,VWS V14.01,2013-10-11 06:37:00,
2013-10-11 02:42:00,70.7,67.3,29.95,NE,42,0.0,0.0,89,0.00,,FEW021,0.00,0.00,VWS V14.01,2013-10-11 06:42:00,
2013-10-11 02:47:00,70.7,67.6,29.95,NE,42,0.0,0.0,90,0.00,,FEW021,0.00,0.00,VWS V14.01,2013-10-11 06:47:00,
2013-10-11 02:52:00,70.6,67.5,29.95,NE,42,0.0,0.0,90,0.00,,FEW021,0.00,0.00,VWS V14.01,2013-10-11 06:52:00,
2013-10-11 02:57:00,70.5,67.4,29.95,NE,42,0.0,0.0,90,0.00,,FEW021,0.00,0.00,VWS V14.01,2013-10-11 06:57:00,
2013-10-11 03:02:00,70.4,67.3,29.95,NE,42,0.0,0.0,90,0.00,,FEW021,0.00,0.00,VWS V14.01,2013-10-11 07:02:00,
2013-10-11 03:07:00,70.3,67.2,29.95,NE,42,0.0,0.0,90,0.00,,FEW021,0.00,0.00,VWS V14.01,2013-10-11 07:07:00,
2013-10-11 03:12:00,70.2,67.4,29.95,NE,42,0.0,0.0,91,0.00,,FEW021,0.00,0.00,VWS V14.01,2013-10-11 07:12:00,
2013-10-11 03:17:00,70.2,67.4,29.95,NE,42,1.0,2.0,91,0.00,,FEW021,0.00,0.00,VWS V14.01,2013-10-11 07:17:00,
2013-10-11 03:22:00,70.2,67.4,29.95,NE,42,0.0,0.0,91,0.00,,FEW021,0.00,0.00,VWS V14.01,2013-10-11 07:22:00,
2013-10-11 03:27:00,70.2,67.4,29.95,NE,42,0.0,0.0,91,0.00,,FEW021,0.00,0.00,VWS V14.01,2013-10-11 07:27:00,
2013-10-11 03:32:00,70.1,67.4,29.95,NE,42,0.0,0.0,91,0.00,,FEW021,0.00,0.00,VWS V14.01,2013-10-11 07:32:00,
2013-10-11 03:37:00,70.1,67.4,29.95,NE,42,0.0,0.0,91,0.00,,FEW021,0.00,0.00,VWS V14.01,2013-10-11 07:37:00,
2013-10-11 03:42:00,70.0,67.3,29.95,NE,42,1.0,1.0,91,0.00,,FEW021,0.00,0.00,VWS V14.01,2013-10-11 07:42:00,
2013-10-11 03:47:00,70.0,67.6,29.95,NE,42,0.0,0.0,92,0.00,,FEW021,0.00,0.00,VWS V14.01,2013-10-11 07:47:00,
2013-10-11 03:52:00,70.0,67.6,29.95,NE,42,0.0,0.0,92,0.00,,FEW021,0.00,0.00,VWS V14.01,2013-10-11 07:52:00,
2013-10-11 03:57:00,69.9,67.5,29.95,NE,42,0.0,0.0,92,0.00,,FEW021,0.00,0.00,VWS V14.01,2013-10-11 07:57:00,
2013-10-11 04:02:00,69.9,67.5,29.95,NE,42,0.0,0.0,92,0.00,,FEW021,0.00,0.00,VWS V14.01,2013-10-11 08:02:00,
2013-10-11 04:07:00,69.8,67.4,29.95,NE,42,0.0,0.0,92,0.00,,FEW021,0.00,0.00,VWS V14.01,2013-10-11 08:07:00,
2013-10-11 04:12:00,69.7,67.3,29.95,NE,42,0.0,0.0,92,0.00,,FEW021,0.00,0.00,VWS V14.01,2013-10-11 08:12:00,
2013-10-11 04:17:00,69.7,67.3,29.95,NE,42,0.0,0.0,92,0.00,,FEW021,0.00,0.00,VWS V14.01,2013-10-11 08:17:00,
2013-10-11 04:22:00,69.7,67.3,29.95,NE,42,0.0,0.0,92,0.00,,FEW021,0.00,0.00,VWS V14.01,2013-10-11 08:22:00,
2013-10-11 04:27:00,69.7,67.3,29.95,NE,42,0.0,0.0,92,0.00,,FEW021,0.00,0.00,VWS V14.01,2013-10-11 08:27:00,
2013-10-11 04:32:00,69.7,67.6,29.95,NE,42,0.0,0.0,93,0.00,,FEW021,0.00,0.00,VWS V14.01,2013-10-11 08:32:00,
2013-10-11 04:37:00,69.7,67.6,29.95,NE,42,0.0,0.0,93,0.00,,FEW021,0.00,0.00,VWS V14.01,2013-10-11 08:37:00,
2013-10-11 04:42:00,69.8,67.7,29.95,NE,42,1.0,1.0,93,0.00,,FEW021,0.00,0.00,VWS V14.01,2013-10-11 08:42:00,
2013-10-11 04:47:00,70.0,67.9,29.95,NE,42,1.0,3.0,93,0.00,,FEW021,0.00,0.00,VWS V14.01,2013-10-11 08:47:00,
2013-10-11 04:52:00,70.1,68.0,29.95,NE,42,0.0,2.0,93,0.00,,FEW021,0.00,0.00,VWS V14.01,2013-10-11 08:52:00,
2013-10-11 04:57:00,70.0,67.9,29.95,NE,42,1.0,2.0,93,0.00,,FEW021,0.00,0.00,VWS V14.01,2013-10-11 08:57:00,
2013-10-11 05:02:00,69.9,67.8,29.95,NE,42,1.0,2.0,93,0.00,,FEW021,0.00,0.00,VWS V14.01,2013-10-11 09:02:00,
2013-10-11 05:07:00,69.8,67.7,29.95,NE,42,1.0,1.0,93,0.00,,FEW021,0.00,0.00,VWS V14.01,2013-10-11 09:07:00,
2013-10-11 05:12:00,69.9,67.8,29.95,NE,42,0.0,0.0,93,0.00,,FEW021,0.00,0.00,VWS V14.01,2013-10-11 09:12:00,
2013-10-11 05:17:00,69.9,67.8,29.95,NE,42,2.0,2.0,93,0.00,,FEW021,0.00,0.00,VWS V14.01,2013-10-11 09:17:00,
2013-10-11 05:22:00,69.9,67.8,29.95,NE,42,0.0,2.0,93,0.00,,FEW021,0.00,0.00,VWS V14.01,2013-10-11 09:22:00,
2013-10-11 05:27:00,69.8,67.7,29.95,NE,42,0.0,0.0,93,0.00,,FEW021,0.00,0.00,VWS V14.01,2013-10-11 09:27:00,
2013-10-11 05:32:00,69.7,67.6,29.95,NE,42,1.0,1.0,93,0.00,,FEW021,0.00,0.00,VWS V14.01,2013-10-11 09:32:00,
2013-10-11 05:37:00,69.7,67.6,29.95,NE,42,1.0,2.0,93,0.00,,FEW021,0.00,0.00,VWS V14.01,2013-10-11 09:37:00,
2013-10-11 05:42:00,69.8,67.7,29.95,NE,42,0.0,1.0,93,0.00,,FEW021,0.00,0.00,VWS V14.01,2013-10-11 09:42:00,
2013-10-11 05:47:00,69.7,67.6,29.96,NE,42,0.0,1.0,93,0.00,,FEW021,0.00,0.00,VWS V14.01,2013-10-11 09:47:00,
2013-10-11 05:52:00,69.7,67.6,29.96,NE,42,1.0,2.0,93,0.00,,FEW021,0.00,0.00,VWS V14.01,2013-10-11 09:52:00,
2013-10-11 05:57:00,69.6,67.5,29.96,NE,42,0.0,0.0,93,0.00,,FEW021,0.00,0.00,VWS V14.01,2013-10-11 09:57:00,
2013-10-11 06:02:00,69.5,67.4,29.96,NE,42,1.0,1.0,93,0.00,,FEW021,0.00,0.00,VWS V14.01,2013-10-11 10:02:00,
2013-10-11 06:07:00,69.4,67.3,29.96,NE,42,0.0,0.0,93,0.00,,FEW021,0.00,0.00,VWS V14.01,2013-10-11 10:07:00,
2013-10-11 06:12:00,69.4,67.3,29.97,NE,42,0.0,0.0,93,0.00,,FEW021,0.00,0.00,VWS V14.01,2013-10-11 10:12:00,
2013-10-11 06:17:00,69.4,67.3,29.97,NE,42,0.0,0.0,93,0.00,,FEW021,0.00,0.00,VWS V14.01,2013-10-11 10:17:00,
2013-10-11 06:22:00,69.4,67.6,29.97,NE,42,0.0,1.0,94,0.00,,FEW021,0.00,0.00,VWS V14.01,2013-10-11 10:22:00,
2013-10-11 06:27:00,69.4,67.6,29.97,NE,42,0.0,1.0,94,0.00,,FEW021,0.00,0.00,VWS V14.01,2013-10-11 10:27:00,
2013-10-11 06:32:00,69.5,67.7,29.97,NE,42,1.0,2.0,94,0.00,,FEW021,0.00,0.00,VWS V14.01,2013-10-11 10:32:00,
2013-10-11 06:37:00,69.6,67.8,29.97,NE,42,1.0,2.0,94,0.00,,FEW021,0.00,0.00,VWS V14.01,2013-10-11 10:37:00,
2013-10-11 06:42:00,69.6,67.8,29.97,NE,42,0.0,2.0,94,0.00,,FEW021,0.00,0.00,VWS V14.01,2013-10-11 10:42:00,
2013-10-11 06:47:00,69.6,67.8,29.98,NE,42,0.0,1.0,94,0.00,,FEW021,0.00,0.00,VWS V14.01,2013-10-11 10:47:00,
2013-10-11 06:52:00,69.6,67.8,29.98,NE,42,0.0,0.0,94,0.00,,FEW021,0.00,0.00,VWS V14.01,2013-10-11 10:52:00,
2013-10-11 06:57:00,69.5,67.7,29.98,NE,42,0.0,0.0,94,0.00,,FEW021,0.00,0.00,VWS V14.01,2013-10-11 10:57:00,
2013-10-11 07:02:00,69.4,67.3,29.98,NE,42,0.0,1.0,93,0.00,,FEW021,0.00,0.00,VWS V14.01,2013-10-11 11:02:00,
2013-10-11 07:07:00,69.4,67.3,29.98,NE,42,0.0,0.0,93,0.00,,FEW021,0.00,0.00,VWS V14.01,2013-10-11 11:07:00,
2013-10-11 07:12:00,69.3,67.2,29.98,NE,42,0.0,0.0,93,0.00,,FEW021,0.00,0.00,VWS V14.01,2013-10-11 11:12:00,
2013-10-11 07:17:00,69.2,67.1,29.98,NE,42,0.0,0.0,93,0.00,,FEW021,0.00,0.00,VWS V14.01,2013-10-11 11:17:00,
2013-10-11 07:22:00,69.2,67.4,29.98,NE,42,0.0,0.0,94,0.00,,FEW021,0.00,0.00,VWS V14.01,2013-10-11 11:22:00,
2013-10-11 07:27:00,69.1,67.3,29.98,NE,42,0.0,0.0,94,0.00,,FEW021,0.00,7.00,VWS V14.01,2013-10-11 11:27:00,
2013-10-11 07:32:00,69.0,67.2,29.98,NE,42,2.0,2.0,94,0.00,,FEW021,0.00,11.00,VWS V14.01,2013-10-11 11:32:00,
2013-10-11 07:37:00,69.1,67.3,29.99,NE,42,0.0,2.0,94,0.00,,FEW021,0.00,12.00,VWS V14.01,2013-10-11 11:37:00,
2013-10-11 07:42:00,69.2,67.4,29.99,NE,42,2.0,2.0,94,0.00,,FEW021,0.00,16.00,VWS V14.01,2013-10-11 11:42:00,
2013-10-11 07:47:00,69.4,67.6,29.99,NE,42,1.0,2.0,94,0.00,,FEW021,0.00,18.00,VWS V14.01,2013-10-11 11:47:00,
2013-10-11 07:52:00,69.6,68.1,29.99,NE,42,0.0,1.0,95,0.00,,FEW021,0.00,19.00,VWS V14.01,2013-10-11 11:52:00,
2013-10-11 07:57:00,69.8,68.3,29.99,NE,42,0.0,0.0,95,0.00,,FEW021,0.00,21.00,VWS V14.01,2013-10-11 11:57:00,
2013-10-11 08:02:00,70.1,68.6,30.00,NE,42,0.0,0.0,95,0.00,,FEW021,0.00,23.00,VWS V14.01,2013-10-11 12:02:00,
2013-10-11 08:07:00,70.5,69.0,30.00,NE,42,1.0,1.0,95,0.00,,FEW021,0.00,25.00,VWS V14.01,2013-10-11 12:07:00,
2013-10-11 08:12:00,70.9,69.1,30.00,NNE,28,2.0,3.0,94,0.00,,FEW021,0.00,26.00,VWS V14.01,2013-10-11 12:12:00,
2013-10-11 08:17:00,71.4,69.6,30.00,NNE,18,2.0,3.0,94,0.00,,FEW021,0.00,26.00,VWS V14.01,2013-10-11 12:17:00,
2013-10-11 08:22:00,72.0,69.9,30.00,NNE,18,1.0,3.0,93,0.00,,FEW021,0.00,28.00,VWS V14.01,2013-10-11 12:22:00,
2013-10-11 08:27:00,72.5,70.1,30.00,North,350,1.0,3.0,92,0.00,,FEW021,0.00,30.00,VWS V14.01,2013-10-11 12:27:00,
2013-10-11 08:32:00,73.0,70.2,30.00,North,350,1.0,2.0,91,0.00,,FEW021,0.00,32.00,VWS V14.01,2013-10-11 12:32:00,
2013-10-11 08:37:00,73.5,70.4,30.01,NNW,343,2.0,3.0,90,0.00,,FEW021,0.00,193.00,VWS V14.01,2013-10-11 12:37:00,
2013-10-11 08:42:00,74.2,71.1,30.01,NNW,343,1.0,3.0,90,0.00,,FEW021,0.00,213.00,VWS V14.01,2013-10-11 12:42:00,
2013-10-11 08:47:00,74.9,71.1,30.01,NNW,347,1.0,4.0,88,0.00,,FEW021,0.00,225.00,VWS V14.01,2013-10-11 12:47:00,
2013-10-11 08:52:00,75.6,71.5,30.01,NNW,347,3.0,3.0,87,0.00,,FEW021,0.00,246.00,VWS V14.01,2013-10-11 12:52:00,
2013-10-11 08:57:00,76.2,71.4,30.01,NNW,346,1.0,2.0,85,0.00,,FEW021,0.00,271.00,VWS V14.01,2013-10-11 12:57:00,
2013-10-11 09:02:00,76.8,71.2,30.01,NNW,345,1.0,4.0,83,0.00,,FEW021,0.00,288.00,VWS V14.01,2013-10-11 13:02:00,
2013-10-11 09:07:00,77.4,71.1,30.01,NNE,30,0.0,3.0,81,0.00,,FEW021,0.00,309.00,VWS V14.01,2013-10-11 13:07:00,
2013-10-11 09:12:00,77.9,71.6,30.01,NNE,29,1.0,2.0,81,0.00,,FEW021,0.00,323.00,VWS V14.01,2013-10-11 13:12:00,
2013-10-11 09:17:00,78.4,71.7,30.01,NNE,29,0.0,2.0,80,0.00,,FEW021,0.00,338.00,VWS V14.01,2013-10-11 13:17:00,
2013-10-11 09:22:00,79.0,71.6,30.01,NE,40,2.0,4.0,78,0.00,,FEW021,0.00,357.00,VWS V14.01,2013-10-11 13:22:00,
2013-10-11 09:27:00,79.6,72.1,30.01,NE,34,2.0,2.0,78,0.00,,FEW021,0.00,373.00,VWS V14.01,2013-10-11 13:27:00,
2013-10-11 09:32:00,80.2,71.6,30.01,NE,34,1.0,2.0,75,0.00,,FEW021,0.00,390.00,VWS V14.01,2013-10-11 13:32:00,
2013-10-11 09:37:00,80.6,71.9,30.01,NNE,30,3.0,3.0,75,0.00,,FEW021,0.00,408.00,VWS V14.01,2013-10-11 13:37:00,
2013-10-11 09:42:00,81.1,71.2,30.01,NE,45,2.0,4.0,72,0.00,,FEW021,0.00,427.00,VWS V14.01,2013-10-11 13:42:00,
2013-10-11 09:47:00,81.5,70.8,30.01,NNE,32,1.0,5.0,70,0.00,,FEW021,0.00,429.00,VWS V14.01,2013-10-11 13:47:00,
2013-10-11 09:52:00,81.8,71.5,30.01,NE,34,2.0,5.0,71,0.00,,FEW021,0.00,515.00,VWS V14.01,2013-10-11 13:52:00,
2013-10-11 09:57:00,82.1,70.5,30.01,NE,38,4.0,8.0,68,0.00,,FEW021,0.00,527.00,VWS V14.01,2013-10-11 13:57:00,
2013-10-11 10:02:00,82.3,70.3,30.01,ENE,72,7.0,10.0,67,0.00,,FEW021,0.00,512.00,VWS V14.01,2013-10-11 14:02:00,
2013-10-11 10:07:00,82.4,70.3,30.01,NE,35,2.0,7.0,67,0.00,,FEW021,0.00,533.00,VWS V14.01,2013-10-11 14:07:00,
2013-10-11 10:11:00,82.8,70.3,30.01,NE,34,3.0,9.0,66,0.00,,FEW021,0.00,552.00,VWS V14.01,2013-10-11 14:11:00,
2013-10-11 10:16:00,83.0,70.0,30.01,NE,45,4.0,10.0,65,0.00,,FEW021,0.00,570.00,VWS V14.01,2013-10-11 14:16:00,
2013-10-11 10:21:00,83.2,70.2,30.01,NNE,22,5.0,10.0,65,0.00,,FEW021,0.00,584.00,VWS V14.01,2013-10-11 14:21:00,
2013-10-11 10:26:00,83.0,69.6,30.01,NE,41,5.0,9.0,64,0.00,,FEW021,0.00,629.00,VWS V14.01,2013-10-11 14:26:00,
2013-10-11 10:31:00,83.2,69.3,30.01,NE,39,10.0,11.0,63,0.00,,FEW021,0.00,561.00,VWS V14.01,2013-10-11 14:31:00,
2013-10-11 10:36:00,82.9,69.9,30.01,NNE,28,3.0,6.0,65,0.00,,FEW021,0.00,169.00,VWS V14.01,2013-10-11 14:36:00,
2013-10-11 10:41:00,83.2,70.2,30.01,NNE,29,1.0,6.0,65,0.00,,FEW021,0.00,656.00,VWS V14.01,2013-10-11 14:41:00,
2013-10-11 10:46:00,84.0,70.5,30.01,NE,38,4.0,8.0,64,0.00,,FEW021,0.00,652.00,VWS V14.01,2013-10-11 14:46:00,
2013-10-11 10:51:00,84.2,69.8,30.01,NE,40,4.0,9.0,62,0.00,,FEW021,0.00,657.00,VWS V14.01,2013-10-11 14:51:00,
2013-10-11 10:56:00,84.6,70.6,30.01,NNE,28,4.0,6.0,63,0.00,,FEW021,0.00,673.00,VWS V14.01,2013-10-11 14:56:00,
2013-10-11 11:01:00,84.6,70.2,30.01,NNE,26,9.0,9.0,62,0.00,,FEW021,0.00,703.00,VWS V14.01,2013-10-11 15:01:00,
2013-10-11 11:06:00,84.6,68.2,30.01,East,85,2.0,10.0,58,0.00,,FEW021,0.00,705.00,VWS V14.01,2013-10-11 15:06:00,
2013-10-11 11:11:00,85.0,69.6,30.01,NNE,31,5.0,8.0,60,0.00,,FEW021,0.00,714.00,VWS V14.01,2013-10-11 15:11:00,
2013-10-11 11:16:00,85.1,70.6,30.01,NNE,32,3.0,10.0,62,0.00,,FEW021,0.00,724.00,VWS V14.01,2013-10-11 15:16:00,
2013-10-11 11:21:00,85.6,70.6,30.01,NE,51,4.0,7.0,61,0.00,,FEW021,0.00,777.00,VWS V14.01,2013-10-11 15:21:00,
2013-10-11 11:26:00,85.6,69.6,30.01,NE,39,7.0,7.0,59,0.00,,FEW021,0.00,749.00,VWS V14.01,2013-10-11 15:26:00,
2013-10-11 11:31:00,85.4,70.4,30.01,NE,44,3.0,6.0,61,0.00,,FEW021,0.00,788.00,VWS V14.01,2013-10-11 15:31:00,
2013-10-11 11:36:00,85.5,71.5,30.01,NNE,29,4.0,8.0,63,0.00,,FEW021,0.00,793.00,VWS V14.01,2013-10-11 15:36:00,
2013-10-11 11:41:00,85.8,70.3,30.01,NNE,32,3.0,10.0,60,0.00,,FEW021,0.00,846.00,VWS V14.01,2013-10-11 15:41:00,
2013-10-11 11:46:00,86.2,70.2,30.01,NNE,30,2.0,5.0,59,0.00,,FEW021,0.00,828.00,VWS V14.01,2013-10-11 15:46:00,
2013-10-11 11:51:00,86.2,71.2,30.01,NE,40,9.0,9.0,61,0.00,,FEW021,0.00,838.00,VWS V14.01,2013-10-11 15:51:00,
2013-10-11 11:56:00,85.9,68.9,30.01,NNE,29,3.0,11.0,57,0.00,,FEW021,0.00,863.00,VWS V14.01,2013-10-11 15:56:00,
2013-10-11 12:01:00,86.0,69.5,30.01,NE,44,3.0,9.0,58,0.00,,FEW021,0.00,793.00,VWS V14.01,2013-10-11 16:01:00,
2013-10-11 12:06:00,85.9,70.4,30.01,NE,42,6.0,8.0,60,0.00,,FEW021,0.00,875.00,VWS V14.01,2013-10-11 16:06:00,
2013-10-11 12:11:00,86.0,70.0,30.01,ESE,115,4.0,6.0,59,0.00,,FEW021,0.00,837.00,VWS V14.01,2013-10-11 16:11:00,
2013-10-11 12:16:00,86.2,70.7,30.00,NE,44,6.0,12.0,60,0.00,,FEW021,0.00,889.00,VWS V14.01,2013-10-11 16:16:00,
2013-10-11 12:21:00,86.8,70.3,30.00,NE,45,5.0,7.0,58,0.00,,FEW021,0.00,858.00,VWS V14.01,2013-10-11 16:21:00,
2013-10-11 12:26:00,86.7,70.7,30.00,NE,36,7.0,9.0,59,0.00,,FEW021,0.00,870.00,VWS V14.01,2013-10-11 16:26:00,
2013-10-11 12:31:00,86.5,69.0,30.00,NNE,28,2.0,9.0,56,0.00,,FEW021,0.00,844.00,VWS V14.01,2013-10-11 16:31:00,
2013-10-11 12:36:00,87.0,70.4,30.00,ENE,62,3.0,5.0,58,0.00,,FEW021,0.00,849.00,VWS V14.01,2013-10-11 16:36:00,
2013-10-11 12:41:00,87.0,70.4,30.00,NE,40,4.0,11.0,58,0.00,,FEW021,0.00,881.00,VWS V14.01,2013-10-11 16:41:00,
2013-10-11 12:46:00,87.0,70.4,30.00,NE,42,9.0,10.0,58,0.00,,FEW021,0.00,867.00,VWS V14.01,2013-10-11 16:46:00,
2013-10-11 12:51:00,86.7,70.7,30.00,NE,40,6.0,9.0,59,0.00,,FEW021,0.00,939.00,VWS V14.01,2013-10-11 16:51:00,
2013-10-11 12:56:00,86.5,70.5,29.99,NNE,31,9.0,9.0,59,0.00,,FEW021,0.00,882.00,VWS V14.01,2013-10-11 16:56:00,
2013-10-11 13:01:00,87.0,70.4,29.99,North,360,1.0,7.0,58,0.00,,FEW021,0.00,893.00,VWS V14.01,2013-10-11 17:01:00,
2013-10-11 13:06:00,87.0,70.4,29.99,NE,39,3.0,10.0,58,0.00,,FEW021,0.00,893.00,VWS V14.01,2013-10-11 17:06:00,
2013-10-11 13:11:00,87.4,70.3,29.99,NE,45,8.0,10.0,57,0.00,,FEW021,0.00,933.00,VWS V14.01,2013-10-11 17:11:00,
2013-10-11 13:16:00,87.4,70.8,29.99,NE,36,6.0,10.0,58,0.00,,FEW021,0.00,879.00,VWS V14.01,2013-10-11 17:16:00,
2013-10-11 13:21:00,87.4,70.3,29.99,NE,45,3.0,8.0,57,0.00,,FEW021,0.00,867.00,VWS V14.01,2013-10-11 17:21:00,
2013-10-11 13:26:00,87.4,70.3,29.99,NNE,13,5.0,7.0,57,0.00,,FEW021,0.00,868.00,VWS V14.01,2013-10-11 17:26:00,
2013-10-11 13:31:00,87.5,70.9,29.98,NE,49,5.0,11.0,58,0.00,,FEW021,0.00,874.00,VWS V14.01,2013-10-11 17:31:00,
2013-10-11 13:36:00,88.0,70.3,29.98,NNE,32,2.0,12.0,56,0.00,,FEW021,0.00,858.00,VWS V14.01,2013-10-11 17:36:00,
2013-10-11 13:41:00,87.8,70.2,29.97,NE,37,3.0,7.0,56,0.00,,FEW021,0.00,863.00,VWS V14.01,2013-10-11 17:41:00,
2013-10-11 13:46:00,87.7,69.5,29.97,ENE,66,3.0,9.0,55,0.00,,FEW021,0.00,896.00,VWS V14.01,2013-10-11 17:46:00,
2013-10-11 13:51:00,87.7,70.1,29.97,East,86,3.0,10.0,56,0.00,,FEW021,0.00,881.00,VWS V14.01,2013-10-11 17:51:00,
2013-10-11 13:56:00,87.9,69.2,29.97,ENE,76,3.0,9.0,54,0.00,,FEW021,0.00,858.00,VWS V14.01,2013-10-11 17:56:00,
2013-10-11 14:01:00,87.9,70.3,29.97,NE,38,7.0,9.0,56,0.00,,FEW021,0.00,896.00,VWS V14.01,2013-10-11 18:01:00,
2013-10-11 14:06:00,87.7,69.5,29.97,NE,50,9.0,13.0,55,0.00,,FEW021,0.00,424.00,VWS V14.01,2013-10-11 18:06:00,
2013-10-11 14:11:00,87.2,69.6,29.96,NNE,26,4.0,12.0,56,0.00,,FEW021,0.00,875.00,VWS V14.01,2013-10-11 18:11:00,
2013-10-11 14:16:00,87.0,70.4,29.96,NE,35,5.0,8.0,58,0.00,,FEW021,0.00,861.00,VWS V14.01,2013-10-11 18:16:00,
2013-10-11 14:21:00,87.2,70.6,29.96,NE,38,7.0,9.0,58,0.00,,FEW021,0.00,846.00,VWS V14.01,2013-10-11 18:21:00,
2013-10-11 14:26:00,87.3,70.7,29.96,NE,49,7.0,8.0,58,0.00,,FEW021,0.00,867.00,VWS V14.01,2013-10-11 18:26:00,
2013-10-11 14:31:00,87.2,71.1,29.96,ENE,74,4.0,11.0,59,0.00,,FEW021,0.00,888.00,VWS V14.01,2013-10-11 18:31:00,
2013-10-11 14:36:00,87.2,70.1,29.96,NE,51,6.0,16.0,57,0.00,,FEW021,0.00,824.00,VWS V14.01,2013-10-11 18:36:00,
2013-10-11 14:41:00,87.2,70.6,29.96,NE,46,3.0,11.0,58,0.00,,FEW021,0.00,809.00,VWS V14.01,2013-10-11 18:41:00,
2013-10-11 14:46:00,87.3,70.7,29.96,NE,34,11.0,12.0,58,0.00,,FEW021,0.00,793.00,VWS V14.01,2013-10-11 18:46:00,
2013-10-11 14:51:00,87.6,70.0,29.96,NE,50,4.0,11.0,56,0.00,,FEW021,0.00,780.00,VWS V14.01,2013-10-11 18:51:00,
2013-10-11 14:56:00,87.3,69.7,29.95,NE,35,4.0,9.0,56,0.00,,FEW021,0.00,765.00,VWS V14.01,2013-10-11 18:56:00,
2013-10-11 15:01:00,86.8,69.8,29.95,NNE,25,4.0,13.0,57,0.00,,FEW021,0.00,759.00,VWS V14.01,2013-10-11 19:01:00,
2013-10-11 15:06:00,86.7,69.7,29.95,NNE,32,8.0,14.0,57,0.00,,FEW021,0.00,745.00,VWS V14.01,2013-10-11 19:06:00,
2013-10-11 15:11:00,86.7,69.7,29.95,NE,36,4.0,13.0,57,0.00,,FEW021,0.00,738.00,VWS V14.01,2013-10-11 19:11:00,
2013-10-11 15:16:00,86.4,69.9,29.95,NE,46,4.0,10.0,58,0.00,,FEW021,0.00,726.00,VWS V14.01,2013-10-11 19:16:00,
2013-10-11 15:21:00,86.4,69.9,29.95,NE,35,5.0,13.0,58,0.00,,FEW021,0.00,715.00,VWS V14.01,2013-10-11 19:21:00,
2013-10-11 15:26:00,86.6,69.6,29.95,SE,132,5.0,9.0,57,0.00,,FEW021,0.00,701.00,VWS V14.01,2013-10-11 19:26:00,
2013-10-11 15:31:00,86.6,69.1,29.95,East,90,5.0,12.0,56,0.00,,FEW021,0.00,693.00,VWS V14.01,2013-10-11 19:31:00,
2013-10-11 15:36:00,86.2,69.2,29.96,NE,38,12.0,13.0,57,0.00,,FEW021,0.00,680.00,VWS V14.01,2013-10-11 19:36:00,
2013-10-11 15:41:00,85.9,68.9,29.95,NNE,29,5.0,11.0,57,0.00,,FEW021,0.00,701.00,VWS V14.01,2013-10-11 19:41:00,
2013-10-11 15:46:00,86.3,69.8,29.96,NNE,28,7.0,9.0,58,0.00,,FEW021,0.00,654.00,VWS V14.01,2013-10-11 19:46:00,
2013-10-11 15:51:00,86.2,68.7,29.96,NE,34,7.0,10.0,56,0.00,,FEW021,0.00,642.00,VWS V14.01,2013-10-11 19:51:00,
2013-10-11 15:56:00,85.9,68.4,29.95,NE,46,5.0,10.0,56,0.00,,FEW021,0.00,629.00,VWS V14.01,2013-10-11 19:56:00,
2013-10-11 16:01:00,85.6,69.1,29.95,NE,56,7.0,13.0,58,0.00,,FEW021,0.00,613.00,VWS V14.01,2013-10-11 20:01:00,
2013-10-11 16:06:00,85.8,69.3,29.95,NE,49,5.0,11.0,58,0.00,,FEW021,0.00,601.00,VWS V14.01,2013-10-11 20:06:00,
2013-10-11 16:11:00,85.6,69.1,29.95,NE,47,11.0,11.0,58,0.00,,FEW021,0.00,584.00,VWS V14.01,2013-10-11 20:11:00,
2013-10-11 16:16:00,85.2,69.3,29.96,NE,49,5.0,13.0,59,0.00,,FEW021,0.00,578.00,VWS V14.01,2013-10-11 20:16:00,
2013-10-11 16:21:00,84.7,69.3,29.95,NE,38,8.0,10.0,60,0.00,,FEW021,0.00,76.00,VWS V14.01,2013-10-11 20:21:00,
2013-10-11 16:26:00,84.3,69.4,29.95,ENE,68,5.0,11.0,61,0.00,,FEW021,0.00,534.00,VWS V14.01,2013-10-11 20:26:00,
2013-10-11 16:31:00,84.7,68.8,29.95,NNE,29,8.0,13.0,59,0.00,,FEW021,0.00,520.00,VWS V14.01,2013-10-11 20:31:00,
2013-10-11 16:36:00,84.8,66.8,29.95,NE,50,5.0,10.0,55,0.00,,FEW021,0.00,503.00,VWS V14.01,2013-10-11 20:36:00,
2013-10-11 16:41:00,84.7,68.3,29.95,ENE,65,3.0,11.0,58,0.00,,FEW021,0.00,489.00,VWS V14.01,2013-10-11 20:41:00,
2013-10-11 16:46:00,84.7,68.3,29.95,NE,50,10.0,11.0,58,0.00,,FEW021,0.00,469.00,VWS V14.01,2013-10-11 20:46:00,
2013-10-11 16:51:00,84.4,69.0,29.95,NE,38,6.0,15.0,60,0.00,,FEW021,0.00,452.00,VWS V14.01,2013-10-11 20:51:00,
2013-10-11 16:56:00,84.3,68.9,29.95,NE,44,3.0,11.0,60,0.00,,FEW021,0.00,432.00,VWS V14.01,2013-10-11 20:56:00,
2013-10-11 17:01:00,84.4,69.5,29.95,ENE,66,7.0,12.0,61,0.00,,FEW021,0.00,415.00,VWS V14.01,2013-10-11 21:01:00,
2013-10-11 17:06:00,84.2,69.3,29.95,NNE,31,8.0,12.0,61,0.00,,FEW021,0.00,397.00,VWS V14.01,2013-10-11 21:06:00,
2013-10-11 17:11:00,83.8,68.0,29.95,NE,34,4.0,14.0,59,0.00,,FEW021,0.00,381.00,VWS V14.01,2013-10-11 21:11:00,
2013-10-11 17:16:00,83.6,68.7,29.95,NE,42,4.0,12.0,61,0.00,,FEW021,0.00,362.00,VWS V14.01,2013-10-11 21:16:00,
2013-10-11 17:21:00,83.4,69.0,29.95,NE,48,3.0,13.0,62,0.00,,FEW021,0.00,341.00,VWS V14.01,2013-10-11 21:21:00,
2013-10-11 17:26:00,83.6,68.7,29.95,ENE,63,4.0,11.0,61,0.00,,FEW021,0.00,323.00,VWS V14.01,2013-10-11 21:26:00,
2013-10-11 17:31:00,83.3,68.5,29.95,NE,42,3.0,9.0,61,0.00,,FEW021,0.00,304.00,VWS V14.01,2013-10-11 21:31:00,
2013-10-11 17:36:00,83.3,68.5,29.95,NNE,28,9.0,15.0,61,0.00,,FEW021,0.00,288.00,VWS V14.01,2013-10-11 21:36:00,
2013-10-11 17:41:00,82.9,68.6,29.95,NNE,17,9.0,13.0,62,0.00,,FEW021,0.00,267.00,VWS V14.01,2013-10-11 21:41:00,
2013-10-11 17:46:00,82.7,68.4,29.95,NE,50,6.0,8.0,62,0.00,,FEW021,0.00,248.00,VWS V14.01,2013-10-11 21:46:00,
2013-10-11 17:51:00,82.6,67.3,29.95,NE,42,6.0,10.0,60,0.00,,FEW021,0.00,229.00,VWS V14.01,2013-10-11 21:51:00,
2013-10-11 17:56:00,82.6,68.7,29.95,ENE,76,4.0,9.0,63,0.00,,FEW021,0.00,207.00,VWS V14.01,2013-10-11 21:56:00,
2013-10-11 18:01:00,82.6,68.7,29.95,East,94,5.0,9.0,63,0.00,,FEW021,0.00,185.00,VWS V14.01,2013-10-11 22:01:00,
2013-10-11 18:06:00,82.3,68.9,29.95,NE,36,8.0,10.0,64,0.00,,FEW021,0.00,160.00,VWS V14.01,2013-10-11 22:06:00,
2013-10-11 18:11:00,82.0,68.6,29.95,NNE,25,8.0,15.0,64,0.00,,FEW021,0.00,142.00,VWS V14.01,2013-10-11 22:11:00,
2013-10-11 18:16:00,81.7,69.2,29.95,ENE,69,4.0,7.0,66,0.00,,FEW021,0.00,123.00,VWS V14.01,2013-10-11 22:16:00,
2013-10-11 18:21:00,81.4,69.0,29.95,NE,36,8.0,13.0,66,0.00,,FEW021,0.00,84.00,VWS V14.01,2013-10-11 22:21:00,
2013-10-11 18:26:00,81.3,68.9,29.95,East,85,1.0,7.0,66,0.00,,FEW021,0.00,72.00,VWS V14.01,2013-10-11 22:26:00,
2013-10-11 18:31:00,81.1,68.7,29.95,NE,51,6.0,8.0,66,0.00,,FEW021,0.00,39.00,VWS V14.01,2013-10-11 22:31:00,
2013-10-11 18:36:00,81.0,68.1,29.95,NNE,32,6.0,10.0,65,0.00,,FEW021,0.00,25.00,VWS V14.01,2013-10-11 22:36:00,
2013-10-11 18:41:00,80.8,67.9,29.95,NE,50,5.0,11.0,65,0.00,,FEW021,0.00,21.00,VWS V14.01,2013-10-11 22:41:00,
2013-10-11 18:46:00,80.6,68.2,29.95,NE,38,4.0,9.0,66,0.00,,FEW021,0.00,11.00,VWS V14.01,2013-10-11 22:46:00,
2013-10-11 18:51:00,80.5,68.1,29.95,NE,40,5.0,10.0,66,0.00,,FEW021,0.00,7.00,VWS V14.01,2013-10-11 22:51:00,
2013-10-11 18:56:00,80.3,67.9,29.95,NE,38,6.0,11.0,66,0.00,,FEW021,0.00,5.00,VWS V14.01,2013-10-11 22:56:00,
2013-10-11 19:01:00,80.2,68.3,29.95,NE,46,4.0,7.0,67,0.00,,FEW021,0.00,0.00,VWS V14.01,2013-10-11 23:01:00,
2013-10-11 19:06:00,80.1,68.2,29.95,NE,51,2.0,7.0,67,0.00,,FEW021,0.00,0.00,VWS V14.01,2013-10-11 23:06:00,
2013-10-11 19:11:00,80.0,68.5,29.95,NE,42,6.0,9.0,68,0.00,,FEW021,0.00,0.00,VWS V14.01,2013-10-11 23:11:00,
2013-10-11 19:16:00,79.9,68.4,29.95,NE,36,6.0,8.0,68,0.00,,FEW021,0.00,0.00,VWS V14.01,2013-10-11 23:16:00,
2013-10-11 19:21:00,79.7,68.2,29.95,East,90,5.0,5.0,68,0.00,,FEW021,0.00,0.00,VWS V14.01,2013-10-11 23:21:00,
2013-10-11 19:26:00,79.6,68.1,29.96,NE,48,1.0,5.0,68,0.00,,FEW021,0.00,0.00,VWS V14.01,2013-10-11 23:26:00,
2013-10-11 19:31:00,79.5,68.0,29.96,ENE,72,2.0,3.0,68,0.00,,FEW021,0.00,0.00,VWS V14.01,2013-10-11 23:31:00,
2013-10-11 19:36:00,79.4,68.3,29.96,ENE,63,3.0,5.0,69,0.00,,FEW021,0.00,0.00,VWS V14.01,2013-10-11 23:36:00,
2013-10-11 19:41:00,79.3,68.3,29.96,NE,51,3.0,5.0,69,0.00,,FEW021,0.00,0.00,VWS V14.01,2013-10-11 23:41:00,
2013-10-11 19:46:00,79.2,68.6,29.96,East,87,0.0,3.0,70,0.00,,FEW021,0.00,0.00,VWS V14.01,2013-10-11 23:46:00,
2013-10-11 19:51:00,79.2,68.6,29.97,ESE,114,1.0,5.0,70,0.00,,FEW021,0.00,0.00,VWS V14.01,2013-10-11 23:51:00,
2013-10-11 19:56:00,79.1,68.5,29.97,NE,44,2.0,6.0,70,0.00,,FEW021,0.00,0.00,VWS V14.01,2013-10-11 23:56:00,
2013-10-11 20:01:00,79.1,68.5,29.97,NNE,30,6.0,8.0,70,0.00,,FEW021,0.00,0.00,VWS V14.01,2013-10-12 00:01:00,
2013-10-11 20:06:00,79.0,68.4,29.97,NNE,30,6.0,6.0,70,0.00,,FEW021,0.00,0.00,VWS V14.01,2013-10-12 00:06:00,
2013-10-11 20:11:00,79.0,68.4,29.97,NE,38,1.0,4.0,70,0.00,,FEW021,0.00,0.00,VWS V14.01,2013-10-12 00:11:00,
2013-10-11 20:16:00,78.9,68.3,29.98,SSE,157,1.0,5.0,70,0.00,,FEW021,0.00,0.00,VWS V14.01,2013-10-12 00:16:00,
2013-10-11 20:21:00,78.8,68.2,29.98,NE,40,3.0,3.0,70,0.00,,FEW021,0.00,0.00,VWS V14.01,2013-10-12 00:21:00,
2013-10-11 20:26:00,78.7,68.5,29.98,NE,52,1.0,4.0,71,0.00,,FEW021,0.00,0.00,VWS V14.01,2013-10-12 00:26:00,
2013-10-11 20:31:00,78.7,68.1,29.98,NE,44,1.0,4.0,70,0.00,,FEW021,0.00,0.00,VWS V14.01,2013-10-12 00:31:00,
2013-10-11 20:36:00,78.6,68.4,29.98,NE,42,2.0,4.0,71,0.00,,FEW021,0.00,0.00,VWS V14.01,2013-10-12 00:36:00,
2013-10-11 20:41:00,78.6,68.4,29.98,NE,50,2.0,3.0,71,0.00,,FEW021,0.00,0.00,VWS V14.01,2013-10-12 00:41:00,
2013-10-11 20:46:00,78.6,68.4,29.98,NE,45,3.0,3.0,71,0.00,,FEW021,0.00,0.00,VWS V14.01,2013-10-12 00:46:00,
2013-10-11 20:51:00,78.5,68.3,29.98,NE,41,3.0,4.0,71,0.00,,FEW021,0.00,0.00,VWS V14.01,2013-10-12 00:51:00,
2013-10-11 20:56:00,78.5,68.3,29.98,NE,51,1.0,3.0,71,0.00,,FEW021,0.00,0.00,VWS V14.01,2013-10-12 00:56:00,
2013-10-11 21:01:00,78.4,68.2,29.98,NE,49,1.0,5.0,71,0.00,,FEW021,0.00,0.00,VWS V14.01,2013-10-12 01:01:00,
2013-10-11 21:06:00,78.4,68.2,29.99,NE,46,2.0,4.0,71,0.00,,FEW021,0.00,0.00,VWS V14.01,2013-10-12 01:06:00,
2013-10-11 21:11:00,78.4,68.2,29.98,East,92,1.0,3.0,71,0.00,,FEW021,0.00,0.00,VWS V14.01,2013-10-12 01:11:00,
2013-10-11 21:16:00,78.3,68.1,29.99,East,83,3.0,5.0,71,0.00,,FEW021,0.00,0.00,VWS V14.01,2013-10-12 01:16:00,
2013-10-11 21:21:00,78.2,68.0,29.99,NE,42,2.0,4.0,71,0.00,,FEW021,0.00,0.00,VWS V14.01,2013-10-12 01:21:00,
2013-10-11 21:26:00,78.2,67.6,29.99,East,94,2.0,4.0,70,0.00,,FEW021,0.00,0.00,VWS V14.01,2013-10-12 01:26:00,
2013-10-11 21:31:00,78.1,67.5,29.99,NNE,31,1.0,3.0,70,0.00,,FEW021,0.00,0.00,VWS V14.01,2013-10-12 01:31:00,
2013-10-11 21:36:00,78.0,67.4,29.99,NE,43,3.0,5.0,70,0.00,,FEW021,0.00,0.00,VWS V14.01,2013-10-12 01:36:00,
2013-10-11 21:41:00,78.0,67.4,29.99,NNE,30,1.0,3.0,70,0.00,,FEW021,0.00,0.00,VWS V14.01,2013-10-12 01:41:00,
2013-10-11 21:46:00,78.0,67.4,30.00,ENE,61,1.0,3.0,70,0.00,,FEW021,0.00,0.00,VWS V14.01,2013-10-12 01:46:00,
2013-10-11 21:51:00,78.0,67.4,30.00,ENE,69,1.0,2.0,70,0.00,,FEW021,0.00,0.00,VWS V14.01,2013-10-12 01:51:00,
2013-10-11 21:56:00,77.9,67.3,30.00,East,92,1.0,5.0,70,0.00,,FEW021,0.00,0.00,VWS V14.01,2013-10-12 01:56:00,
2013-10-11 22:01:00,77.8,67.7,30.00,NE,44,2.0,4.0,71,0.00,,FEW021,0.00,0.00,VWS V14.01,2013-10-12 02:01:00,
2013-10-11 22:06:00,77.8,67.7,30.00,NNE,30,0.0,3.0,71,0.00,,FEW021,0.00,0.00,VWS V14.01,2013-10-12 02:06:00,
2013-10-11 22:11:00,77.6,67.9,30.00,ENE,63,0.0,3.0,72,0.00,,FEW021,0.00,0.00,VWS V14.01,2013-10-12 02:11:00,
2013-10-11 22:16:00,77.4,67.7,30.00,ENE,73,0.0,2.0,72,0.00,,FEW021,0.00,0.00,VWS V14.01,2013-10-12 02:16:00,
2013-10-11 22:21:00,77.2,67.5,30.00,ENE,72,1.0,2.0,72,0.00,,FEW021,0.00,0.00,VWS V14.01,2013-10-12 02:21:00,
2013-10-11 22:26:00,77.1,67.4,30.00,ENE,71,0.0,2.0,72,0.00,,FEW021,0.00,0.00,VWS V14.01,2013-10-12 02:26:00,
2013-10-11 22:31:00,77.1,67.4,30.00,East,90,1.0,4.0,72,0.00,,FEW021,0.00,0.00,VWS V14.01,2013-10-12 02:31:00,
2013-10-11 22:36:00,77.0,67.3,30.00,ENE,69,1.0,3.0,72,0.00,,FEW021,0.00,0.00,VWS V14.01,2013-10-12 02:36:00,
2013-10-11 22:41:00,77.0,67.3,30.00,ENE,66,1.0,3.0,72,0.00,,FEW021,0.00,0.00,VWS V14.01,2013-10-12 02:41:00,
2013-10-11 22:46:00,76.9,67.2,30.00,NE,46,2.0,4.0,72,0.00,,FEW021,0.00,0.00,VWS V14.01,2013-10-12 02:46:00,
2013-10-11 22:51:00,77.0,67.3,30.00,NE,46,1.0,2.0,72,0.00,,FEW021,0.00,0.00,VWS V14.01,2013-10-12 02:51:00,
2013-10-11 22:56:00,76.9,67.2,30.00,NE,34,1.0,3.0,72,0.00,,FEW021,0.00,0.00,VWS V14.01,2013-10-12 02:56:00,
2013-10-11 23:01:00,76.8,67.1,30.00,NE,34,0.0,1.0,72,0.00,,FEW021,0.00,0.00,VWS V14.01,2013-10-12 03:01:00,
2013-10-11 23:06:00,76.6,67.3,30.00,NE,34,0.0,1.0,73,0.00,,FEW021,0.00,0.00,VWS V14.01,2013-10-12 03:06:00,
2013-10-11 23:11:00,76.4,67.1,30.00,NE,35,1.0,2.0,73,0.00,,FEW021,0.00,0.00,VWS V14.01,2013-10-12 03:11:00,
2013-10-11 23:16:00,76.3,67.0,30.00,NE,35,0.0,2.0,73,0.00,,FEW021,0.00,0.00,VWS V14.01,2013-10-12 03:16:00,
2013-10-11 23:20:00,76.2,67.3,30.00,NE,35,0.0,2.0,74,0.00,,FEW021,0.00,0.00,VWS V14.01,2013-10-12 03:20:00,
2013-10-11 23:25:00,76.2,67.3,29.99,NE,35,0.0,2.0,74,0.00,,FEW021,0.00,0.00,VWS V14.01,2013-10-12 03:25:00,
2013-10-11 23:30:00,76.2,67.3,29.99,NE,35,1.0,2.0,74,0.00,,FEW021,0.00,0.00,VWS V14.01,2013-10-12 03:30:00,
2013-10-11 23:35:00,76.1,67.2,29.99,NE,35,0.0,2.0,74,0.00,,FEW021,0.00,0.00,VWS V14.01,2013-10-12 03:35:00,
2013-10-11 23:40:00,76.0,67.1,29.99,NE,35,1.0,1.0,74,0.00,,FEW021,0.00,0.00,VWS V14.01,2013-10-12 03:40:00,
2013-10-11 23:45:00,76.0,67.1,29.99,NE,35,0.0,2.0,74,0.00,,FEW021,0.00,0.00,VWS V14.01,2013-10-12 03:45:00,
2013-10-11 23:50:00,75.9,67.0,29.99,NE,35,0.0,0.0,74,0.00,,FEW021,0.00,0.00,VWS V14.01,2013-10-12 03:50:00,
2013-10-11 23:55:00,75.8,66.9,29.99,NE,35,1.0,2.0,74,0.00,,FEW021,0.00,0.00,VWS V14.01,2013-10-12 03:55:00,